Hourly Weather Roundup
Issued by NWS Central Illinois

Home | Current Version | Previous Version | Text Only | Print | Product List | Glossary On
Versions: 1 2 3 4 5 6 7 8 9 10 11 12 13 14 15 16 17 18 19 20 21 22 23 24 25 26 27 28 29 30 31 32 33 34 35 36 37 38 39 40 41 42 43 44 45 46 47 48 49 50
650
NZUS43 KILX 291810
HWRILX

Area Weather Roundup
National Weather Service Lincoln IL
100 PM CDT SAT APR 29 2017

NOTE:  "FAIR" indicates few or no clouds below 12,000 feet, with
       no sigificant weather and/or obstructions to visibility.


CITY           SKY/WX    TMP DP  RH WIND       PRES   REMARKS
Bloomington    LGT RAIN  46  44  93 E18G33    30.04F
6HR MIN TEMP:  45; 6HR MAX TEMP:  47; 6HR PCP:  0.39;

Champaign      CLOUDY    53  50  89 NE24      29.98F
6HR MIN TEMP:  49; 6HR MAX TEMP:  53; 6HR PCP:  0.35;

Danville       CLOUDY    54  54  97 NE10      30.00F FOG
6HR MIN TEMP:  47; 6HR MAX TEMP:  54; 6HR PCP:  0.33;

Decatur        CLOUDY    52  52 100 E21       29.95F
6HR MIN TEMP:  48; 6HR MAX TEMP:  52; 6HR PCP:  0.55;

Effingham      CLOUDY    64  64 100 NE8       29.95F FOG
6HR MIN TEMP:  57; 6HR MAX TEMP:  64; 6HR PCP:  0.50;

Flora          CLOUDY    74  67  76 SE18      29.92F
6HR MIN TEMP:  61; 6HR MAX TEMP:  74; 6HR PCP:  0.32;

Galesburg      LGT RAIN  42  40  91 NE28G33   29.99F WCI  32
6HR MIN TEMP:  42; 6HR MAX TEMP:  47; 6HR PCP:  0.12;

Jacksonville   CLOUDY    49  49  97 E20G25    29.92F
6HR MIN TEMP:  48; 6HR MAX TEMP:  52; 6HR PCP:  0.59;

Lacon          RAIN      42  41  96 NE12G21   30.05F
6HR MIN TEMP:  42; 6HR MAX TEMP:  48; 6HR PCP:  0.22;

Lawrenceville  MOSUNNY   76  67  73 SE13      29.97F
6HR MIN TEMP:  59; 6HR MAX TEMP:  76; 6HR PCP:  0.25;

Litchfield     CLOUDY    56  56  99 E12       29.90F FOG
6HR MIN TEMP:  52; 6HR MAX TEMP:  56; 6HR PCP:  0.03;

$$


CITY           SKY/WX    TMP DP  RH WIND       PRES   REMARKS
Lincoln        DRIZZLE   50  49  97 NE21G26   29.98S
6HR MIN TEMP:  48; 6HR MAX TEMP:  50; 6HR PCP:  0.60;

Macomb         LGT RAIN  45  44  96 NE22      29.98F
Mattoon        CLOUDY    58  57  97 NE9       29.96F
6HR MIN TEMP:  51; 6HR MAX TEMP:  58; 6HR PCP:  0.59;

Mt Carmel AP   CLOUDY    76  65  67 SE17      29.97F
6HR MIN TEMP:  60; 6HR MAX TEMP:  76;

Olney-Noble AP MOSUNNY   74  71  91 E14       29.93F
Paris AP       CLOUDY    59  59  99 NE10      30.01F
6HR MIN TEMP:  53; 6HR MAX TEMP:  59; 6HR PCP:  0.40;

Peoria         LGT RAIN  45  44  97 NE23G40   29.94F FOG
6HR MIN TEMP:  45; 6HR MAX TEMP:  49; 6HR PCP:  0.24;

Pontiac        RAIN      45  44  97 N21G37    30.03F
6HR MIN TEMP:  45; 6HR MAX TEMP:  49; 6HR PCP:  0.15;

Rantoul        CLOUDY    52  51  96 NE21      30.02F
6HR MIN TEMP:  49; 6HR MAX TEMP:  52; 6HR PCP:  0.29;

Robinson       CLOUDY    72  65  78 SE14      29.98F
6HR MIN TEMP:  57; 6HR MAX TEMP:  73; 6HR PCP:  0.35;

Springfield    HVY RAIN  51  49  92 NE9       29.97F FOG
6HR MIN TEMP:  49; 6HR MAX TEMP:  51; 6HR PCP:  0.87;

Taylorville    CLOUDY    52  52  98 E16G24    29.93F FOG
6HR MIN TEMP:  49; 6HR MAX TEMP:  52; 6HR PCP:  0.70;

$$

...REGIONAL REPORTS...


CITY           SKY/WX    TMP DP  RH WIND       PRES   REMARKS
Chicago O`Hare LGT RAIN  42  35  76 NE16G25   30.19F WCI  34
Kankakee       LGT RAIN  44  41  90 NE21G28   30.05F
Moline         LGT RAIN  43  39  86 NE18G30   30.07F FOG     WCI  35
Mount Sterling RAIN      46  46  98 NE10      29.97R
Mount Vernon   PTSUNNY   75  66  73 E15       29.90F
Pittsfield     TSTM      49  48  97 NE14      29.91F
Quincy         HVY RAIN  47  46  97 NE17      29.94F FOG
Rockford       LGT RAIN  44  35  70 NE13      30.23R
$$


CITY           SKY/WX    TMP DP  RH WIND       PRES   REMARKS
Burlington     RAIN      43  50 100 NE25G36   29.99F WCI  33
Cedar Rapids   LGT RAIN  43  40  89 NE18G25   30.10F WCI  35
Des Moines     LGT RAIN  44  40  85 NE15      30.13R FOG
Kirksville     LGT RAIN  47  30  51 NE16G24   30.00R
Ottumwa        RAIN      43  42  97 NE18      30.07F FOG     WCI  35
St Louis       LGT RAIN  63  60  90 E10       29.85F
$$


CITY           SKY/WX    TMP DP  RH WIND       PRES   REMARKS
Terre Haute    CLOUDY    68  64  87 E7        30.00F
Evansville     PTSUNNY   78  64  61 E14G23    29.97F HX  80
Indianapolis   CLOUDY    66  64  93 SE3       30.03F
Lafayette      CLOUDY    55  55 100 NE10      30.06F
Madison        CLOUDY    44  33  65 NE16      30.24R
Milwaukee      CLOUDY    41  31  67 N22G30    30.27R WCI  31
$$






USA.gov is the U.S. government's official web portal to all federal, state and local government web resources and services.